User: anonymous   Login
Location: Sagn�
(15.2046°N, 12.7898°W)
Time: 16:16:00
(UTC+00:00)
Language:

Cosmos 1763 Rocket - Orbit

View from above orbital plane
View from above orbital plane
View from above satellite
View from above satellite

Ground track
Ground track

The orbit data is extracted from the following two-line orbital elements,

1 16864U 86052B   21210.41812418  .00000025  00000-0  16294-4 0  9994
2 16864  74.0279 192.5270 0034362 280.0318  79.6961 14.40636653839121
Epoch (UTC): 29 July 2021 10:02:05
Eccentricity: 0.0034362
inclination: 74.0279°
perigee height: 732 km
apogee height: 781 km
right ascension of ascending node: 192.5270°
argument of perigee: 280.0318°
revolutions per day: 14.40636653
mean anomaly at epoch: 79.6961°
orbit number at epoch: 83912

The dashed part of the orbit path shows where the satellite is in the earth's shadow,  

DLR